Weather History for Pecos, TX

Change the Weather History Date:

Wednesday, December 19, 2012

  Actual Average Record
Temperature  
Mean Temperature 52 °F -  
Max Temperature 73 °F 62 °F 83 °F (1980)
Min Temperature 31 °F 29 °F 12 °F (1981)
Degree Days  
Heating Degree Days 13    
Growing Degree Days 2 (Base 50)    
Moisture  
Dew Point 15 °F    
Average Humidity 33    
Maximum Humidity 47    
Minimum Humidity 9    
Precipitation  
Precipitation 0.00 in - - ()
Sea Level Pressure  
Sea Level Pressure 29.81 in    
Wind  
Wind Speed 7 mph (West)    
Max Wind Speed 33 mph    
Max Gust Speed 45 mph    
Visibility 8 miles    
Events      
Averages and records for this station are not official NWS values.
T = Trace of Precipitation, MM = Missing Value Source: NWS Daily Summary

Daily Weather History Graph

Daily Weather History Graph

Search for Another Location

Airport:

Trip Planner

Search our weather history database for the weather conditions in past years. The results will help you decide how hot, cold, wet, or windy it might be!

Date:

Astronomy

Dec. 19, 2012 Rise Set
Actual Time 7:48 AM CST 5:54 PM CST
Civil Twilight 7:21 AM CST 6:21 PM CST
Nautical Twilight 6:51 AM CST 6:51 PM CST
Astronomical Twilight 6:21 AM CST 7:21 PM CST
Moon 12:23 PM CST (12/19) 12:00 AM CST (12/19)
Length of Visible Light 11h 00m
Length of Day
10h 06m
Waxing Crescent, 45% of the Moon is Illuminated
Dec 19
Waxing Crescent
Dec 19
First Quarter
Dec 28
Full
Jan 4
Last Quarter
Jan 11
New

Hourly Weather History & Observations

Time (CST) Temp. Windchill Dew Point Humidity Pressure Visibility Wind Dir Wind Speed Gust Speed Precip Events Conditions
12:15 AM 39.6 °F - 15.6 °F 38% 29.76 in 10.0 mi Calm Calm - N/A   Clear
12:35 AM 39.6 °F 37.4 °F 15.4 °F 38% 29.76 in 10.0 mi WSW 3.5 mph - N/A   Clear
12:55 AM 39.0 °F 34.8 °F 14.4 °F 37% 29.75 in 10.0 mi South 5.8 mph - N/A   Clear
1:15 AM 37.0 °F 31.0 °F 13.1 °F 37% 29.73 in 10.0 mi South 8.1 mph - N/A   Clear
1:35 AM 39.2 °F 35.0 °F 13.1 °F 34% 29.72 in 10.0 mi South 5.8 mph - N/A   Clear
1:55 AM 37.2 °F 34.7 °F 12.2 °F 36% 29.72 in 10.0 mi WSW 3.5 mph - N/A   Clear
2:15 AM 37.8 °F 35.3 °F 12.9 °F 36% 29.71 in 10.0 mi SW 3.5 mph - N/A   Clear
2:35 AM 37.8 °F 31.8 °F 12.9 °F 36% 29.71 in 10.0 mi SSW 8.1 mph - N/A   Clear
2:55 AM 36.7 °F 31.2 °F 12.7 °F 37% 29.70 in 10.0 mi SW 6.9 mph - N/A   Clear
3:15 AM 34.2 °F 31.2 °F 12.0 °F 40% 29.70 in 10.0 mi WSW 3.5 mph - N/A   Clear
3:35 AM 32.7 °F - 11.7 °F 42% 29.68 in 10.0 mi Calm Calm - N/A   Clear
3:55 AM 32.5 °F - 11.3 °F 41% 29.68 in 10.0 mi Calm Calm - N/A   Clear
4:15 AM 32.4 °F 27.9 °F 10.9 °F 41% 29.67 in 10.0 mi West 4.6 mph - N/A   Clear
4:35 AM 32.5 °F - 12.6 °F 44% 29.67 in 10.0 mi Calm Calm - N/A   Clear
4:55 AM 33.1 °F 30.0 °F 12.7 °F 43% 29.66 in 10.0 mi NW 3.5 mph - N/A   Clear
5:15 AM 32.9 °F 29.8 °F 13.1 °F 44% 29.66 in 10.0 mi West 3.5 mph - N/A   Clear
5:35 AM 31.6 °F - 12.7 °F 46% 29.65 in 10.0 mi Calm Calm - N/A   Clear
5:55 AM 31.6 °F 27.0 °F 13.3 °F 47% 29.65 in 10.0 mi NE 4.6 mph - N/A   Clear
6:15 AM 32.9 °F - 14.2 °F 46% 29.65 in 10.0 mi Calm Calm - N/A   Clear
6:35 AM 33.8 °F - 14.9 °F 46% 29.66 in 10.0 mi Calm Calm - N/A   Clear
6:55 AM 34.0 °F - 14.4 °F 45% 29.66 in 10.0 mi Calm Calm - N/A   Clear
7:15 AM 35.1 °F - 15.3 °F 44% 29.66 in 10.0 mi Calm Calm - N/A   Clear
7:35 AM 36.5 °F - 15.8 °F 43% 29.66 in 10.0 mi Calm Calm - N/A   Clear
7:55 AM 37.9 °F - 15.8 °F 41% 29.67 in 10.0 mi Calm Calm - N/A   Clear
8:15 AM 37.6 °F - 16.7 °F 43% 29.67 in 10.0 mi Calm Calm - N/A   Clear
8:35 AM 38.5 °F - 17.1 °F 42% 29.67 in 10.0 mi Calm Calm - N/A   Clear
9:15 AM 41.0 °F 38.0 °F 16.5 °F 37% 29.69 in 10.0 mi North 4.6 mph - N/A   Clear
9:55 AM 44.1 °F - 17.4 °F 34% 29.70 in 10.0 mi Calm Calm - N/A   Clear
10:55 AM 56.1 °F - 18.7 °F 23% 29.70 in 10.0 mi NNE 5.8 mph - N/A   Clear
11:55 AM 72.5 °F - 10.4 °F 9% 29.71 in 10.0 mi WSW 24.2 mph 27.6 mph N/A   Clear
1:55 PM 73.0 °F - 19.2 °F 13% 29.71 in 3.0 mi WSW 33.4 mph 43.7 mph N/A   Haze
2:15 PM 72.1 °F - 22.1 °F 15% 29.70 in 5.0 mi WSW 29.9 mph 44.9 mph N/A   Haze
3:35 PM 69.8 °F - 28.4 °F 21% 29.74 in 7.0 mi West 18.4 mph 34.5 mph N/A   Scattered Clouds
3:55 PM 66.4 °F - 32.9 °F 29% 29.77 in 2.0 mi West 33.4 mph 41.4 mph N/A   Haze
4:35 PM 63.5 °F - 32.2 °F 31% 29.82 in 2.5 mi West 32.2 mph 43.7 mph N/A   Haze
6:15 PM 57.2 °F - 21.4 °F 25% 29.90 in 1.5 mi West 33.4 mph 43.7 mph N/A   Haze
6:55 PM 53.8 °F - 15.3 °F 22% 29.95 in 1.5 mi West 29.9 mph 41.4 mph N/A   Haze
7:15 PM 53.2 °F - 14.0 °F 21% 30.00 in 2.0 mi West 29.9 mph 42.6 mph N/A   Haze
7:35 PM 52.0 °F - 12.2 °F 20% 30.02 in 4.0 mi West 21.9 mph 28.8 mph N/A   Haze
7:55 PM 51.3 °F - 12.6 °F 21% 30.03 in 4.0 mi West 23.0 mph 28.8 mph N/A   Haze
8:55 PM 49.1 °F - 12.9 °F 23% 30.06 in 5.0 mi West 19.6 mph - N/A   Haze
9:15 PM 48.4 °F - 13.1 °F 24% 30.08 in 7.0 mi West 19.6 mph 24.2 mph N/A   Clear
9:35 PM 47.8 °F - 13.1 °F 25% 30.11 in 5.0 mi West 15.0 mph - N/A   Haze
9:55 PM 47.3 °F - 13.1 °F 25% 30.11 in 7.0 mi West 18.4 mph - N/A   Clear
10:15 PM 46.6 °F - 12.9 °F 26% 30.13 in 7.0 mi West 18.4 mph - N/A   Clear
10:35 PM 45.0 °F 37.9 °F 12.9 °F 27% 30.16 in 10.0 mi WNW 16.1 mph - N/A   Clear
10:55 PM 44.8 °F 39.0 °F 12.2 °F 27% 30.18 in 10.0 mi WNW 11.5 mph - N/A   Clear
11:15 PM 44.4 °F 40.0 °F 12.2 °F 27% 30.19 in 10.0 mi West 8.1 mph - N/A   Clear
11:35 PM 42.4 °F 37.0 °F 11.3 °F 28% 30.21 in 10.0 mi West 9.2 mph - N/A   Clear